Hourly Data Report for October 16, 2016

All times are specified in Local Standard Time (LST). Add 1 hour to adjust for Daylight Saving Time where and when it is observed.

KITCHENER/WATERLOO
ONTARIO

43°27'39.000" N
80°22'43.000" W
321.60 m
6144239
71368
YKF

Download Data

Hourly Data (October 2016)
Hourly Data Report for October 16, 2016
Temp Definition
°C
Dew Point Temp Definition
°C
Rel Hum Definition
%
Wind Dir Definition
10's deg

Wind Spd Definition
km/h
Visibility Definition
km
Stn Press Definition
kPa
Hmdx Definition


Wind Chill Definition


Weather Definition


TIME
00:00 Legend Double Dagger 18.0 14.6 80 22 18 16.1 97.80     LegendNANA
01:00 Legend Double Dagger 18.0 14.7 81 20 21 16.1 97.78     LegendNANA
02:00 Legend Double Dagger 17.8 14.7 82 21 18 16.1 97.75     LegendNANA
03:00 Legend Double Dagger 17.9 14.8 82 21 15 16.1 97.71     LegendNANA
04:00 Legend Double Dagger 17.7 14.8 83 21 17 16.1 97.68     LegendNANA
05:00 Legend Double Dagger 17.2 14.9 86 21 18 16.1 97.67     LegendNANA
06:00 Legend Double Dagger 17.5 15.0 85 22 17 16.1 97.67     LegendNANA
07:00 Legend Double Dagger 16.6 15.5 93 21 17 8.1 97.65     Moderate Rain,Fog
08:00 Legend Double Dagger 16.8 15.7 93 21 13 12.9 97.63     Rain
09:00 Legend Double Dagger 18.2 16.1 87 23 26 16.1 97.64     LegendNANA
10:00 Legend Double Dagger 19.2 15.6 79 23 30 16.1 97.63     LegendNANA
11:00 Legend Double Dagger 19.2 15.7 80 24 21 16.1 97.61     LegendNANA
12:00 Legend Double Dagger 18.6 16.4 87 24 13 14.5 97.58     Rain
13:00 Legend Double Dagger 18.6 16.2 86 26 21 16.1 97.54     LegendNANA
14:00 Legend Double Dagger 18.5 15.6 83 27 21 16.1 97.57     LegendNANA
15:00 Legend Double Dagger 19.2 15.3 78 26 22 16.1 97.56     LegendNANA
16:00 Legend Double Dagger 18.9 14.8 77 26 18 16.1 97.58     LegendNANA
17:00 Legend Double Dagger 18.8 15.1 79 24 17 16.1 97.56     LegendNANA
18:00 Legend Double Dagger 17.6 15.3 86 23 9 16.1 97.60     LegendNANA
19:00 Legend Double Dagger 17.6 15.6 88 22 11 16.1 97.63     Rain
20:00 Legend Double Dagger 17.3 15.7 90 24 5 14.5 97.65     LegendNANA
21:00 Legend Double Dagger 16.9 15.6 92   0 11.3 97.66     LegendNANA
22:00 Legend Double Dagger 16.7 15.9 95 25 4 4.8 97.66     Fog
23:00 Legend Double Dagger 16.4 15.8 96 16 5 8.1 97.63     Fog

Notes on Data Quality.

Legend

  • E = Estimated
  • M = Missing
  • NA = Not Available
  • ‡ = Partner data that is not subject to review by the National Climate Archives
Date modified: